Location: Caltech
(34.1382°N, 118.1253°W)
Time: 02:06:11
(UTC-07:00)

Iridium 75 - Visible Passes

Search period start: 28 August 2014 00:00
Search period end: 07 September 2014 00:00
Orbit: 776 x 779 km, 86.4° (Epoch: 27 August)

Date Brightness Start Highest point End Pass type
(mag) Time Alt. Az. Time Alt. Az. Time Alt. Az.
28 Aug 6.8 21:37:49 38° NE 21:37:49 38° NE 21:41:17 10° NNE visible
28 Aug 8.7 23:18:16 14° WNW 23:18:16 14° WNW 23:20:03 10° NW visible
29 Aug 7.3 21:04:07 24° ENE 21:04:07 24° ENE 21:07:11 10° NNE visible
29 Aug 7.9 22:44:34 26° WNW 22:44:34 26° WNW 22:47:54 10° NNW visible
30 Aug 7.8 20:30:23 13° ENE 20:30:23 13° ENE 20:32:10 10° NE visible
30 Aug 6.9 22:10:50 46° NW 22:10:50 46° NW 22:14:55 10° N visible
31 Aug 6.2 21:37:04 63° NNE 21:37:04 63° NNE 21:41:30 10° N visible
01 Sep 6.5 21:03:16 39° ENE 21:03:16 39° ENE 21:07:41 10° NNE visible
01 Sep 8.3 22:43:42 19° W 22:43:42 19° W 22:47:20 10° NW visible
02 Sep 7.3 20:29:25 21° E 20:29:34 21° E 20:33:20 10° NE visible
02 Sep 7.3 22:09:51 36° W 22:09:58 36° W 22:14:45 10° NNW visible
03 Sep 7.9 19:56:11 10° E 19:56:23 10° ENE 19:56:35 10° ENE visible
03 Sep 6.1 21:35:57 67° WSW 21:36:22 71° W 21:41:34 10° N visible
04 Sep 6.0 21:01:58 51° SE 21:02:53 59° E 21:07:59 10° N visible
04 Sep 8.7 22:42:24 11° W 22:43:58 13° WNW 22:46:08 10° NW visible
05 Sep 6.8 20:27:55 25° ESE 20:29:30 30° E 20:34:00 10° NNE visible
05 Sep 8.0 22:08:20 20° WSW 22:10:09 24° W 22:14:21 10° NNW visible
06 Sep 7.6 19:53:44 12° ESE 19:56:15 16° E 19:59:16 10° NE visible
06 Sep 6.9 21:34:09 28° SW 21:36:29 47° W 21:41:29 10° N visible
